Wind_Speed
8 8 7 3 4 5 8 8 9 10 11 7 5 7 7 5 8 5 8 3 3 5 4 4 3 8 5 4 4 7 7 4 3 4 4 6 8 9 8 7 7 7 7 7 8 8 7 7 5
10 10 7 5 9 7 4 10 10 8 9 6 7 6 7 5 6 6 5 4 5 6 6 6 6 6 7 7 8 7 6 5 4 3 3 6 9 9 8 6 7 7 7 7 8 8 6 7 7
8 6 5 2 6 11 2 10 8 8 8 9 8 8 8 7 7 6 4 5 7 7 1 1 2 2 7 9 6 5 5 6 4 3 3 5 9 9 7 5 6 7 7 7 8 8 8 8 7
9 6 4 4 3 6 7 7 9 9 6 9 9 6 8 7 7 5 5 7 7 7 2 5 9 10 10 7 7 7 6 6 5 3 3 5 8 7 7 5 4 7 7 6 8 9 9 8 8
5 5 11 5 2 3 1 8 7 7 13 11 10 9 8 8 4 6 5 7 6 8 2 2 4 7 8 5 5 5 7 9 12 8 5 5 7 7 6 7 4 7 8 8 8 9 9 10 9
4 7 9 2 2 2 4 7 9 8 1 14 10 7 4 8 7 7 7 9 6 7 3 2 4 3 4 6 6 9 6 9 13 10 8 6 7 5 5 6 4 6 9 10 10 8 8 10 11
4 2 8 7 4 5 5 7 8 9 12 10 12 13 10 9 8 5 7 7 7 4 3 3 1 3 6 6 4 7 1 6 13 14 9 8 7 6 5 5 5 8 9 12 10 10 11 11 11
3 2 3 5 3 4 6 7 8 9 10 10 6 6 13 9 9 7 6 8 6 4 2 1 3 3 3 4 4 4 5 9 16 12 10 10 10 9 6 6 5 7 11 13 13 12 13 13 12
1 7 6 6 3 5 5 7 8 8 7 4 8 8 9 9 9 8 8 7 5 4 4 2 6 3 2 4 4 4 7 12 11 11 10 10 8 5 5 6 6 10 11 12 13 14 16 13 15
10 3 6 4 8 7 8 9 9 6 8 9 15 13 7 10 11 10 9 8 4 3 4 3 5 6 8 7 6 4 5 7 6 9 8 10 8 6 6 8 7 10 9 10 14 12 14 12 17
12 6 5 3 6 8 8 9 9 8 8 15 19 3 11 14 8 13 8 9 5 5 5 3 5 7 9 4 5 8 8 6 6 7 8 9 9 7 7 14 8 12 12 9 16 14 12 10 22
7 2 2 2 4 7 8 8 9 12 12 14 13 13 14 11 13 10 7 7 7 4 5 5 4 6 4 3 6 6 6 4 4 6 7 9 10 10 3 14 9 18 12 10 15 14 12 11 10
5 2 3 5 7 9 10 8 7 9 11 13 17 17 15 15 17 8 9 6 7 4 3 4 4 5 5 3 2 2 3 3 5 5 6 7 7 5 4 6 4 3 10 8 9 10 9 9 11
1 2 6 7 10 10 13 10 10 9 10 10 10 12 14 14 15 9 11 9 5 5 6 3 3 4 4 4 3 2 0 2 8 2 7 8 6 3 1 5 7 9 12 11 4 6 7 10 7
3 5 5 6 8 10 9 9 10 13 13 11 10 10 12 12 13 14 5 11 7 4 3 4 4 4 0 5 6 3 3 3 2 2 6 12 11 9 4 6 6 15 12 13 9 6 7 10 8
12 13 9 10 8 5 7 7 12 13 14 12 9 8 8 12 11 11 12 7 5 5 5 3 3 4 6 5 7 5 4 4 2 2 7 14 11 10 11 9 6 8 12 13 11 9 7 10 8
5 11 3 16 5 5 4 3 12 12 15 15 14 12 9 8 10 10 10 10 9 7 6 4 1 3 3 5 7 6 6 5 4 4 7 11 11 10 8 6 17 14 13 11 9 9 9 9 8
6 7 12 7 12 7 9 7 6 12 11 14 15 14 12 9 8 7 8 6 6 4 5 5 2 3 4 7 10 8 5 5 5 4 9 11 12 13 11 5 14 16 10 7 5 10 10 7 7
20 21 17 6 11 8 7 9 9 6 13 12 14 15 12 14 12 9 7 8 6 5 5 4 3 2 3 6 9 8 5 6 3 3 4 13 14 15 10 9 5 9 11 7 7 6 12 8 11
11 12 8 6 12 7 5 10 8 13 7 11 10 14 14 13 14 13 10 9 8 4 5 6 5 3 5 8 7 4 7 9 6 2 2 7 14 15 15 12 13 9 13 14 12 11 8 10 11
6 5 8 10 5 5 10 14 16 15 19 9 9 13 13 16 15 13 14 15 12 10 5 6 5 6 6 9 8 6 7 8 7 6 2 4 8 12 14 11 15 8 5 10 12 13 13 13 10
1 8 11 6 6 5 9 2 19 21 25 13 16 19 14 13 18 16 13 12 13 11 9 7 7 8 9 9 10 9 8 7 5 9 7 6 7 11 12 10 10 12 11 14 10 11 12 13 15
7 2 3 6 5 10 13 7 21 23 5 7 7 5 17 15 16 18 15 14 12 11 12 10 6 8 7 8 9 9 10 8 6 8 8 9 10 10 11 12 13 15 16 12 11 12 11 16 14
3 4 5 5 8 5 7 1 14 14 15 11 21 14 8 16 16 17 16 17 17 13 10 10 7 7 9 10 11 10 10 10 10 8 8 7 10 12 11 13 14 14 14 12 12 14 11 14 14
4 10 10 14 5 2 6 8 15 22 28 27 28 20 14 15 14 12 10 13 15 15 14 9 7 7 9 9 11 13 12 13 12 11 10 11 10 8 10 12 15 14 12 12 11 11 16 11 11
8 6 7 10 13 15 17 9 16 23 26 23 20 18 15 12 17 10 8 10 14 14 14 13 8 6 7 6 6 10 12 14 15 15 14 14 12 12 13 13 14 14 13 13 11 11 14 13 11
3 3 7 9 8 7 13 18 10 17 15 7 10 16 18 14 7 22 13 11 11 14 15 14 12 9 5 6 6 6 9 11 14 15 15 16 15 15 15 16 14 14 14 15 15 14 17 15 16
7 7 11 6 11 7 12 23 15 9 10 16 5 21 22 23 24 17 19 24 17 15 15 15 13 12 9 7 8 9 11 10 12 14 16 17 17 17 17 16 13 13 15 16 15 17 19 19 19
13 11 7 6 11 12 11 22 17 11 25 31 24 22 22 25 27 27 21 24 29 22 18 16 15 13 11 9 9 9 10 12 12 12 12 14 14 15 15 16 15 16 16 16 16 16 19 17 20
13 16 15 15 16 12 20 14 33 33 7 24 27 32 35 30 31 32 30 29 28 32 29 22 18 18 12 9 9 10 13 13 14 14 13 12 12 12 14 16 17 19 18 17 16 17 17 17 19
Wind_Direction
102 118 120 93 132 74 94 341 6 5 351 8 8 19 4 359 14 8 340 354 317 304 263 218 178 175 225 241 291 169 202 189 151 150 119 108 104 96 85 90 83 80 83 78 70 71 67 60 79
110 117 118 177 132 91 43 347 345 355 343 1 339 352 2 6 12 28 343 7 344 317 287 233 194 234 264 277 163 184 190 184 166 155 121 111 101 99 97 97 93 90 85 79 79 84 79 69 91
126 125 110 314 342 109 59 325 324 321 340 351 341 337 350 346 6 18 345 339 334 344 4 87 210 171 117 138 157 190 181 183 179 174 123 114 104 113 109 104 99 94 88 81 88 94 88 93 90
133 117 124 36 207 7 341 310 319 316 355 349 337 9 331 329 358 355 350 317 337 341 326 347 353 142 125 151 176 195 203 179 190 167 124 118 117 130 117 107 89 81 85 75 91 93 90 111 108
137 7 150 112 80 42 5 291 310 301 309 334 335 306 331 319 339 340 343 324 348 354 314 26 78 129 148 186 211 223 226 201 190 172 140 131 136 134 127 93 89 82 76 61 71 91 94 105 112
166 351 28 280 31 352 346 321 307 275 120 300 308 298 353 327 317 334 333 324 351 23 80 146 204 168 184 205 256 217 269 225 191 162 164 148 154 126 107 99 84 82 77 71 80 90 85 101 111
140 261 326 315 347 335 351 340 318 309 287 278 303 330 350 337 320 339 340 319 356 7 143 144 149 187 238 176 106 108 59 162 187 156 177 162 142 112 111 103 80 82 93 81 76 88 95 98 107
72 278 89 289 258 28 3 352 335 318 321 316 303 344 327 333 335 1 348 329 350 318 254 107 230 215 261 142 119 119 85 123 160 163 159 152 146 132 126 102 85 94 105 96 91 98 100 100 106
326 267 265 290 14 27 27 16 347 331 308 1 248 205 317 337 350 355 349 336 4 317 281 303 299 250 257 249 220 252 143 110 137 146 163 139 133 110 125 104 65 110 109 114 104 99 99 116 121
344 301 355 312 333 345 347 352 352 322 320 257 272 267 340 353 8 345 340 343 340 320 289 288 295 302 318 263 232 225 191 152 130 159 162 125 117 121 109 94 88 113 117 118 104 117 120 122 107
247 289 240 304 338 353 1 10 352 332 336 296 324 267 356 330 357 334 338 343 348 341 321 297 290 323 344 122 75 97 144 149 118 178 163 135 158 129 162 114 109 130 125 111 110 100 103 111 145
289 314 329 321 331 335 341 352 357 347 353 339 348 348 346 336 327 337 341 338 340 343 320 336 324 328 354 12 55 96 121 115 92 159 169 147 142 214 175 213 104 139 123 115 117 112 115 95 100
332 336 340 339 352 358 339 340 337 349 346 347 345 337 343 350 343 4 330 339 324 330 303 277 295 318 292 247 266 63 65 46 105 147 181 168 165 145 89 181 104 130 123 125 106 110 106 92 76
125 3 17 7 4 1 351 355 352 349 337 331 324 323 332 343 349 14 341 329 313 337 327 298 279 310 256 232 227 197 196 338 175 73 181 183 157 155 175 186 182 149 143 151 139 98 97 87 106
118 50 17 5 1 358 8 3 342 2 353 341 328 322 327 346 355 348 14 316 328 295 334 334 332 298 147 208 215 236 271 224 303 350 201 188 174 177 165 161 158 157 176 166 165 147 119 123 126
54 54 326 333 340 352 1 342 343 358 6 3 9 345 340 345 348 355 349 348 335 350 334 344 311 299 289 232 228 245 254 283 294 234 195 185 185 198 193 217 193 164 184 187 163 154 141 129 120
287 334 186 289 355 1 351 345 324 27 17 15 28 35 29 354 353 3 359 359 353 350 349 323 230 271 289 252 236 239 267 282 313 232 179 183 196 215 184 174 148 197 193 190 173 169 163 139 117
255 181 274 293 304 338 355 4 337 344 32 31 31 34 38 33 8 2 359 359 336 359 344 338 307 248 239 263 258 253 255 286 339 358 203 203 200 224 206 217 149 177 171 167 170 188 185 170 159
243 228 251 287 300 322 349 14 347 311 343 35 14 18 30 36 31 7 6 351 347 335 301 326 340 271 251 255 277 234 212 244 289 323 218 213 208 227 232 211 220 159 176 174 202 210 200 203 193
210 225 250 343 290 310 333 14 5 353 339 336 4 3 9 22 31 30 6 353 330 331 341 301 285 305 256 253 275 258 243 231 246 264 171 203 215 229 245 273 204 198 190 204 212 211 211 204 209
226 268 264 257 271 292 352 355 329 354 348 318 344 350 1 1 6 13 13 13 347 339 330 335 319 270 249 255 253 257 265 283 246 263 221 222 234 239 244 265 168 205 195 235 230 237 211 210 222
168 284 278 304 318 354 17 272 308 317 323 338 356 333 331 342 349 353 360 360 5 0 341 308 297 308 260 253 249 259 264 261 282 264 243 222 219 240 263 241 238 238 237 259 228 239 222 229 228
219 301 334 20 13 55 25 314 282 297 311 277 305 266 300 319 337 339 343 345 347 351 358 341 300 286 281 244 250 249 253 240 246 263 254 236 231 226 226 242 244 245 252 266 266 260 249 231 236
222 143 110 82 16 322 242 47 246 267 256 305 311 301 252 305 320 329 339 342 339 339 344 348 339 282 289 253 247 252 246 238 236 250 248 241 248 248 244 227 229 246 250 257 273 248 248 232 234
176 149 34 319 238 19 254 352 259 275 288 302 301 285 284 295 307 317 327 330 332 341 348 339 338 296 281 279 247 243 245 241 237 242 243 241 240 250 238 235 234 240 250 254 243 242 232 233 238
286 240 277 310 314 329 345 308 256 277 300 300 290 277 280 297 318 299 304 313 323 328 339 351 338 298 274 274 257 246 245 241 235 237 242 248 251 250 258 254 256 236 243 257 250 224 229 234 244
202 260 275 273 291 291 264 240 295 270 327 262 269 287 309 297 253 301 294 305 307 319 321 330 339 325 288 269 254 236 252 249 241 242 242 250 255 257 253 254 253 228 226 244 249 230 225 233 243
243 224 266 225 267 259 294 297 266 270 218 208 239 260 300 318 308 290 286 300 303 305 305 312 321 325 318 281 263 278 246 241 245 248 249 255 258 259 260 251 242 234 230 236 244 240 231 226 237
297 290 269 256 242 262 293 304 292 253 269 270 245 246 297 302 302 294 285 286 296 296 295 289 302 310 318 305 276 260 256 254 248 244 246 249 256 259 257 250 241 234 239 237 240 246 240 231 237
262 260 265 266 255 246 288 290 287 278 211 217 253 264 276 283 285 285 283 277 281 281 294 288 281 288 289 295 298 287 258 258 255 253 251 250 249 256 256 259 251 246 234 240 244 244 236 237 241
Height
5907 5908 5907 5906 5904 5904 5907 5907 5906 5906 5904 5904 5902 5901 5900 5899 5899 5901 5898 5897 5897 5896 5897 5897 5897 5898 5899 5901 5902 5903 5903 5903 5903 5902 5901 5900 5899 5899 5899 5899 5899 5898 5898 5897 5897 5897 5897 5897 5897
5909 5910 5909 5905 5892 5901 5908 5905 5906 5907 5906 5905 5903 5903 5902 5901 5900 5900 5899 5897 5897 5896 5895 5897 5898 5898 5899 5900 5902 5903 5904 5904 5904 5903 5903 5901 5900 5899 5900 5900 5900 5898 5898 5897 5897 5897 5898 5898 5898
5911 5911 5910 5906 5903 5905 5907 5906 5906 5909 5907 5906 5905 5902 5902 5903 5902 5900 5900 5898 5896 5896 5895 5896 5898 5898 5899 5901 5903 5904 5904 5905 5905 5904 5903 5902 5901 5901 5901 5901 5901 5899 5898 5897 5897 5898 5898 5899 5899
5911 5911 5911 5908 5905 5906 5907 5907 5909 5909 5907 5905 5903 5903 5903 5902 5902 5902 5900 5898 5898 5897 5896 5897 5896 5896 5899 5902 5903 5903 5904 5905 5905 5905 5904 5903 5902 5902 5902 5902 5902 5901 5900 5899 5898 5898 5899 5899 5900
5911 5909 5899 5910 5908 5909 5910 5910 5909 5908 5908 5906 5904 5904 5904 5902 5904 5903 5901 5899 5899 5897 5897 5898 5898 5898 5899 5902 5902 5903 5904 5905 5905 5905 5904 5904 5904 5903 5903 5903 5904 5903 5901 5900 5900 5901 5901 5901 5902
5910 5907 5909 5912 5908 5909 5911 5909 5908 5909 5910 5905 5905 5902 5902 5903 5904 5903 5902 5899 5900 5899 5898 5898 5899 5899 5901 5903 5903 5903 5903 5903 5905 5906 5904 5905 5906 5906 5906 5905 5904 5903 5903 5902 5903 5904 5904 5904 5905
5911 5908 5907 5905 5908 5909 5911 5910 5908 5906 5906 5904 5906 5901 5902 5903 5905 5904 5904 5900 5901 5901 5899 5898 5899 5900 5899 5901 5903 5903 5901 5900 5904 5906 5905 5905 5907 5908 5907 5906 5904 5903 5903 5903 5904 5905 5906 5907 5907
5913 5911 5911 5908 5909 5910 5910 5909 5908 5907 5905 5904 5907 5905 5905 5905 5905 5903 5904 5902 5902 5900 5899 5901 5900 5900 5902 5902 5903 5904 5904 5901 5902 5905 5905 5904 5905 5904 5904 5905 5904 5904 5904 5904 5904 5906 5907 5908 5908
5912 5912 5910 5911 5910 5909 5909 5910 5908 5907 5905 5903 5899 5880 5904 5905 5905 5903 5904 5903 5903 5900 5901 5902 5902 5903 5902 5902 5903 5904 5905 5905 5905 5904 5902 5907 5908 5907 5907 5904 5906 5906 5906 5904 5905 5908 5908 5904 5904
5910 5912 5913 5911 5910 5909 5908 5909 5908 5907 5904 5904 5903 5900 5902 5902 5904 5904 5903 5903 5903 5900 5899 5901 5903 5904 5902 5902 5901 5904 5906 5906 5906 5904 5905 5910 5908 5907 5905 5906 5908 5908 5908 5905 5908 5909 5905 5907 5909
5912 5912 5911 5911 5909 5909 5909 5909 5907 5907 5907 5903 5889 5896 5900 5902 5906 5902 5903 5902 5901 5900 5899 5900 5902 5903 5902 5900 5902 5904 5905 5907 5906 5904 5907 5910 5908 5906 5908 5906 5906 5907 5905 5910 5911 5916 5912 5910 5888
5910 5911 5910 5910 5910 5910 5910 5910 5909 5906 5906 5903 5902 5900 5901 5904 5903 5901 5902 5902 5902 5901 5900 5899 5900 5901 5901 5902 5905 5906 5905 5907 5908 5906 5908 5909 5908 5906 5908 5897 5897 5899 5909 5909 5914 5918 5916 5916 5916
5912 5911 5910 5910 5910 5910 5909 5909 5909 5908 5905 5904 5900 5902 5903 5902 5900 5902 5901 5902 5903 5903 5903 5902 5901 5902 5903 5905 5906 5906 5906 5906 5906 5907 5908 5909 5908 5907 5909 5908 5908 5910 5909 5911 5915 5920 5919 5916 5911
5912 5912 5912 5912 5912 5911 5909 5908 5907 5908 5906 5905 5904 5904 5903 5903 5901 5902 5901 5901 5902 5901 5902 5902 5902 5901 5901 5904 5905 5907 5907 5905 5891 5906 5910 5911 5911 5910 5909 5910 5910 5910 5912 5916 5917 5917 5917 5916 5919
5914 5913 5914 5914 5914 5913 5911 5909 5908 5907 5907 5905 5904 5902 5901 5902 5901 5898 5903 5902 5902 5902 5901 5900 5901 5901 5902 5903 5905 5906 5906 5908 5908 5908 5910 5914 5915 5913 5913 5909 5907 5911 5919 5917 5920 5921 5921 5921 5923
5916 5916 5917 5915 5915 5914 5911 5909 5907 5908 5906 5905 5904 5902 5902 5900 5900 5900 5898 5900 5900 5900 5901 5901 5901 5901 5901 5902 5903 5905 5906 5907 5908 5909 5910 5912 5913 5913 5917 5914 5913 5913 5920 5922 5920 5923 5924 5924 5925
5919 5921 5919 5917 5914 5913 5913 5912 5909 5908 5906 5905 5903 5903 5902 5901 5900 5899 5899 5898 5898 5899 5900 5902 5903 5901 5901 5902 5903 5904 5905 5905 5907 5909 5910 5911 5911 5913 5917 5915 5914 5917 5920 5922 5920 5923 5924 5925 5926
5919 5920 5920 5918 5915 5913 5913 5911 5911 5907 5908 5907 5905 5904 5903 5902 5901 5899 5899 5900 5899 5900 5900 5901 5902 5902 5901 5901 5901 5903 5904 5905 5906 5907 5910 5911 5911 5909 5911 5915 5901 5914 5918 5921 5921 5923 5924 5925 5926
5914 5917 5917 5916 5915 5914 5914 5912 5911 5910 5907 5908 5908 5905 5903 5903 5902 5900 5899 5899 5900 5899 5900 5901 5902 5901 5900 5900 5901 5897 5902 5904 5905 5907 5908 5910 5911 5908 5915 5913 5909 5911 5921 5918 5922 5923 5925 5924 5925
5914 5915 5915 5916 5914 5914 5914 5912 5912 5912 5911 5909 5908 5906 5904 5903 5903 5901 5900 5899 5899 5899 5899 5899 5899 5900 5899 5900 5900 5900 5902 5903 5904 5906 5907 5910 5910 5912 5908 5915 5914 5916 5912 5917 5919 5919 5923 5924 5923
5913 5914 5914 5915 5914 5914 5912 5913 5913 5912 5912 5910 5908 5906 5906 5903 5902 5901 5900 5899 5898 5896 5898 5897 5897 5898 5898 5899 5899 5899 5901 5902 5903 5904 5906 5909 5909 5909 5909 5911 5898 5911 5914 5920 5921 5920 5919 5924 5923
5913 5915 5914 5913 5914 5914 5915 5917 5913 5912 5909 5908 5907 5906 5906 5905 5902 5902 5901 5900 5899 5897 5895 5895 5896 5896 5896 5897 5897 5898 5899 5900 5902 5903 5905 5907 5910 5908 5906 5914 5913 5913 5914 5921 5922 5919 5918 5922 5924
5912 5912 5913 5913 5913 5912 5915 5917 5912 5912 5912 5910 5910 5910 5906 5905 5904 5901 5900 5899 5898 5897 5895 5893 5893 5894 5893 5894 5895 5896 5897 5898 5899 5902 5902 5905 5907 5910 5912 5911 5912 5912 5917 5917 5917 5918 5917 5923 5925
5911 5912 5912 5912 5911 5913 5917 5919 5912 5910 5909 5908 5908 5908 5908 5905 5904 5902 5899 5897 5896 5896 5894 5893 5893 5892 5892 5892 5893 5894 5894 5896 5897 5899 5900 5902 5904 5907 5910 5913 5914 5913 5915 5916 5917 5917 5919 5922 5924
5911 5912 5912 5913 5912 5913 5916 5917 5913 5907 5907 5909 5904 5904 5904 5903 5903 5902 5900 5899 5897 5895 5894 5893 5891 5892 5891 5891 5891 5892 5893 5894 5896 5897 5899 5900 5902 5903 5905 5908 5910 5912 5913 5914 5916 5918 5920 5920 5922
5910 5911 5914 5913 5917 5914 5913 5916 5910 5907 5906 5905 5901 5900 5901 5900 5899 5900 5899 5898 5896 5895 5894 5893 5892 5891 5891 5890 5891 5891 5891 5892 5893 5894 5896 5897 5898 5900 5902 5903 5905 5907 5910 5912 5912 5916 5917 5917 5919
5910 5911 5913 5911 5914 5916 5915 5912 5912 5904 5906 5902 5898 5895 5896 5899 5902 5897 5898 5897 5896 5894 5893 5893 5892 5891 5890 5889 5890 5890 5890 5891 5891 5892 5893 5893 5895 5897 5898 5900 5900 5902 5905 5907 5909 5911 5913 5916 5917
5906 5908 5908 5910 5911 5910 5912 5908 5903 5904 5901 5892 5893 5889 5892 5895 5897 5897 5897 5893 5893 5893 5892 5890 5890 5889 5888 5888 5889 5889 5888 5888 5889 5889 5890 5891 5892 5893 5895 5897 5898 5899 5901 5904 5905 5907 5909 5911 5914
5906 5903 5905 5907 5908 5908 5909 5900 5900 5898 5896 5897 5888 5885 5890 5890 5892 5893 5893 5890 5890 5890 5890 5889 5888 5888 5887 5887 5886 5886 5887 5887 5886 5886 5887 5888 5888 5890 5891 5894 5895 5896 5898 5901 5902 5905 5907 5907 5909
5904 5903 5903 5902 5902 5903 5902 5905 5892 5891 5878 5881 5883 5882 5884 5884 5885 5887 5888 5888 5886 5889 5884 5885 5886 5885 5885 5884 5883 5883 5884 5884 5884 5885 5885 5885 5886 5887 5888 5889 5892 5893 5894 5897 5899 5901 5903 5904 5905